Location: Kolin
(50.0330°N, 15.2000°E)
Time: 21:20:37
(UTC+02:00)

CUBESAT XI-V - Visible Passes

Search period start: 13 August 2022 00:00
Search period end: 23 August 2022 00:00
Orbit: 668 x 690 km, 98.1° (Epoch: 13 August)

Date Brightness Start Highest point End Pass type
(mag) Time Alt. Az. Time Alt. Az. Time Alt. Az.
13 Aug ? 01:12:45 13° E 01:15:12 19° ENE 01:18:29 10° NNE visible
13 Aug ? 02:51:09 54° SSW 02:52:01 66° WSW 02:56:40 10° NNW visible
14 Aug ? 01:48:42 27° ESE 01:50:20 36° ENE 01:54:35 10° N visible
14 Aug ? 03:27:07 31° WSW 03:27:38 32° W 03:31:49 10° NNW visible
15 Aug ? 00:47:18 10° ENE 00:49:11 12° NE 00:51:05 10° NNE visible
15 Aug ? 02:24:40 54° SE 02:25:39 73° ENE 02:30:19 10° N visible
15 Aug ? 04:03:04 16° W 04:03:28 16° W 04:06:18 10° NW visible
16 Aug ? 01:22:14 17° E 01:24:12 23° ENE 01:27:49 10° N visible
16 Aug ? 03:00:38 52° SW 03:01:08 55° W 03:05:44 10° NNW visible
17 Aug ? 01:58:12 35° ESE 01:59:22 43° ENE 02:03:47 10° N visible
17 Aug ? 03:36:35 26° W 03:36:48 27° W 03:40:46 10° NW visible
18 Aug ? 00:55:45 10° E 00:58:09 15° NE 01:00:40 10° NNE visible
18 Aug ? 02:34:09 69° SSE 02:34:43 87° ENE 02:39:26 10° NNW visible
18 Aug ? 04:12:33 13° W 04:12:40 13° W 04:14:52 10° WNW visible
19 Aug ? 01:31:43 22° E 01:33:11 26° ENE 01:37:04 10° N visible
19 Aug ? 03:10:07 45° WSW 03:10:16 45° W 03:14:46 10° NNW visible
20 Aug ? 02:07:40 46° E 02:08:24 51° ENE 02:12:57 10° N visible
20 Aug ? 03:46:04 22° W 03:46:04 22° W 03:49:39 10° NW visible
21 Aug ? 01:05:14 14° E 01:07:06 17° ENE 01:10:05 10° NNE visible
21 Aug ? 02:43:38 77° SW 02:43:48 79° WSW 02:48:31 10° NNW visible
21 Aug ? 04:22:02 11° W 04:22:02 11° W 04:23:00 10° WNW visible
22 Aug ? 01:41:12 28° E 01:42:11 31° ENE 01:46:18 10° N visible
22 Aug ? 03:19:36 37° W 03:19:36 37° W 03:23:45 10° NNW visible
